contact:dominique.lefevre@mio.osupytheas.fr, maurice.libes@osupytheas.fr, didier.mallarino@osupytheas.fr
Project:EMSO http://www.emso-fr.org/EMSO-France
Depth: 2436.0 m
Title:EMSO Ligure Ouest : Data MII capteur AQUADOPP
Date,Latitude,Longitude,X_East,Y_North,Z_Up,Amplitude_X,Amplitude_Y,Amplitude_Z,Batterie,SoundSpeed,Heading,Pitch,Roll,Pressure,TIS,Speed,Direction
, degrees North, degrees East, m.s-1, m.s-1,m.s-1, 1, 1, 1, Volt, m.s-1, degree, degree, degree, dbar, degree_C, m.s-1, degree
2020-06-18T00:04:03,42.805,6.029,-0.013,-0.004,-0.02,101.0,108.0,99.0,13.4,1505.3,327.1,-0.8,1.8,2470.404,13.31,0.013,252.9
2020-06-18T00:07:03,42.805,6.029,0.035,-0.013,-0.024,101.0,110.0,99.0,13.4,1505.3,325.9,-0.7,1.8,2470.369,13.31,0.037,110.4
2020-06-18T00:10:03,42.805,6.029,-0.009,0.013,-0.058,101.0,107.0,99.0,13.4,1505.3,326.6,-0.7,1.8,2470.421,13.32,0.015,325.3
2020-06-18T00:13:03,42.805,6.029,0.007,-0.014,-0.01,102.0,108.0,100.0,13.3,1505.3,325.6,-0.7,1.8,2470.358,13.32,0.015,153.4
2020-06-18T00:16:03,42.805,6.029,0.007,0.006,0.007,102.0,108.0,99.0,13.4,1505.3,328.0,-0.7,1.8,2470.382,13.32,0.009,49.4
2020-06-18T00:19:03,42.805,6.029,0.033,0.01,0.016,103.0,107.0,99.0,13.3,1505.3,326.3,-0.7,1.8,2470.32,13.32,0.034,73.1
2020-06-18T00:22:03,42.805,6.029,0.014,0.0,-0.007,102.0,107.0,99.0,13.4,1505.3,327.7,-0.7,1.8,2470.33,13.32,0.014,90.0
2020-06-18T00:25:03,42.805,6.029,0.012,0.01,-0.038,102.0,108.0,100.0,13.4,1505.3,322.9,-0.7,1.8,2470.374,13.32,0.015,50.2
2020-06-18T00:28:03,42.805,6.029,0.005,0.009,-0.028,102.0,109.0,99.0,13.4,1505.3,326.0,-0.7,1.9,2470.356,13.32,0.01,29.1
2020-06-18T00:31:03,42.805,6.029,0.006,-0.007,-0.016,102.0,108.0,100.0,13.3,1505.3,324.7,-0.7,1.9,2470.388,13.32,0.009,139.4
2020-06-18T00:34:03,42.805,6.029,0.009,0.002,-0.035,102.0,109.0,99.0,13.4,1505.3,327.7,-0.7,1.8,2470.339,13.32,0.009,77.5
2020-06-18T00:37:03,42.805,6.029,0.039,-0.003,-0.033,102.0,108.0,100.0,13.4,1505.3,326.6,-0.7,1.8,2470.355,13.32,0.039,94.4
2020-06-18T00:40:03,42.805,6.029,0.012,0.015,-0.003,101.0,109.0,100.0,13.4,1505.3,324.9,-0.7,1.8,2470.373,13.32,0.019,38.7
2020-06-18T00:43:38,42.805,6.029,0.016,0.009,-0.047,102.0,109.0,99.0,13.4,1505.3,326.5,-0.7,1.8,2470.361,13.32,0.018,60.6
2020-06-18T00:46:09,42.805,6.029,0.027,-0.001,0.003,100.0,109.0,99.0,13.4,1505.3,326.4,-0.7,1.8,2470.374,13.32,0.027,92.1
2020-06-18T00:49:04,42.805,6.029,0.009,-0.007,0.0,102.0,108.0,99.0,13.4,1505.3,326.1,-0.7,1.8,2470.345,13.32,0.011,127.9
2020-06-18T00:52:03,42.805,6.029,-0.003,0.008,-0.028,101.0,108.0,99.0,13.3,1505.3,323.7,-0.7,1.8,2470.321,13.32,0.008,339.4
2020-06-18T01:04:33,42.805,6.029,0.019,0.013,-0.008,103.0,108.0,101.0,13.4,1505.2,324.6,-0.8,1.8,2470.498,13.28,0.023,55.6
2020-06-18T01:18:30,42.805,6.029,0.017,-0.004,-0.011,102.0,106.0,99.0,13.4,1505.2,324.9,-0.7,1.8,2470.539,13.29,0.017,103.2
2020-06-18T01:26:38,42.805,6.029,0.005,-0.006,-0.012,100.0,107.0,100.0,13.4,1505.2,328.4,-0.7,1.8,2470.528,13.28,0.007,140.2
2020-06-18T01:38:30,42.805,6.029,0.029,0.001,-0.012,102.0,107.0,100.0,13.4,1505.2,327.4,-0.7,1.8,2470.543,13.29,0.029,88.0
2020-06-18T01:49:03,42.805,6.029,0.017,0.006,-0.016,102.0,109.0,100.0,13.3,1505.2,327.8,-0.7,1.8,2470.543,13.29,0.018,70.6
2020-06-18T02:25:03,42.805,6.029,0.034,-0.002,0.002,101.0,109.0,100.0,13.3,1505.1,327.7,-0.7,1.8,2470.842,13.27,0.034,93.4
2020-06-18T02:28:03,42.805,6.029,0.039,-0.01,0.008,100.0,107.0,100.0,13.3,1505.2,326.5,-0.7,1.8,2470.768,13.29,0.04,104.4
2020-06-18T02:31:03,42.805,6.029,0.057,0.0,-0.001,102.0,108.0,100.0,13.4,1505.2,324.8,-0.7,1.8,2470.731,13.3,0.057,90.0
2020-06-18T02:34:03,42.805,6.029,0.04,0.008,-0.012,102.0,105.0,101.0,13.3,1505.3,326.5,-0.7,1.8,2470.702,13.31,0.04,78.7
2020-06-18T02:37:03,42.805,6.029,0.026,0.014,0.021,102.0,107.0,99.0,13.4,1505.3,323.9,-0.7,1.8,2470.656,13.31,0.029,61.7
2020-06-18T02:40:03,42.805,6.029,0.03,0.001,-0.01,102.0,107.0,100.0,13.4,1505.3,326.4,-0.7,1.8,2470.616,13.32,0.03,88.1
2020-06-18T02:43:03,42.805,6.029,0.038,0.001,0.031,102.0,107.0,100.0,13.4,1505.3,326.8,-0.7,1.8,2470.57,13.32,0.038,88.5
2020-06-18T02:46:03,42.805,6.029,0.029,-0.007,-0.003,102.0,108.0,99.0,13.3,1505.3,327.2,-0.7,1.8,2470.586,13.32,0.029,103.6
2020-06-18T02:49:03,42.805,6.029,0.024,-0.014,-0.035,101.0,108.0,100.0,13.4,1505.3,325.9,-0.7,1.8,2470.594,13.32,0.027,120.3
2020-06-18T02:52:03,42.805,6.029,0.005,-0.023,-0.023,102.0,107.0,100.0,13.3,1505.3,326.1,-0.7,1.8,2470.548,13.32,0.023,167.7
2020-06-18T02:55:03,42.805,6.029,0.014,-0.017,-0.022,102.0,107.0,101.0,13.4,1505.3,324.6,-0.7,1.8,2470.49,13.32,0.022,140.5
2020-06-18T02:58:03,42.805,6.029,0.019,-0.002,-0.025,102.0,105.0,100.0,13.3,1505.3,327.2,-0.7,1.8,2470.5,13.32,0.019,96.0
2020-06-18T03:04:03,42.805,6.029,0.024,0.019,0.011,102.0,107.0,99.0,13.4,1505.2,325.0,-0.7,1.8,2470.519,13.3,0.03,51.6
2020-06-18T03:07:03,42.805,6.029,0.007,0.014,-0.028,102.0,107.0,99.0,13.4,1505.3,324.4,-0.8,1.8,2470.479,13.31,0.015,26.6
2020-06-18T03:10:03,42.805,6.029,0.038,0.019,0.018,102.0,107.0,99.0,13.3,1505.3,327.9,-0.7,1.8,2470.482,13.32,0.042,63.4
2020-06-18T03:13:03,42.805,6.029,0.036,-0.006,0.011,102.0,107.0,100.0,13.3,1505.3,325.8,-0.7,1.8,2470.462,13.32,0.036,99.5
2020-06-18T03:16:03,42.805,6.029,0.013,-0.009,-0.022,102.0,107.0,98.0,13.3,1505.3,326.8,-0.7,1.8,2470.485,13.32,0.015,124.7
2020-06-18T03:19:03,42.805,6.029,0.013,0.008,-0.021,101.0,108.0,101.0,13.4,1505.3,324.0,-0.7,1.8,2470.448,13.32,0.015,58.4
2020-06-18T03:22:03,42.805,6.029,0.013,-0.006,-0.018,101.0,108.0,100.0,13.4,1505.3,328.4,-0.7,1.8,2470.507,13.32,0.014,114.8
2020-06-18T03:25:03,42.805,6.029,0.007,0.017,0.049,103.0,106.0,99.0,13.4,1505.3,326.5,-0.7,1.8,2470.448,13.32,0.018,22.4
2020-06-18T03:28:03,42.805,6.029,0.056,-0.013,0.013,100.0,107.0,99.0,13.4,1505.3,327.5,-0.7,1.8,2470.472,13.32,0.057,103.1
2020-06-18T03:31:03,42.805,6.029,0.024,-0.022,-0.03,102.0,106.0,100.0,13.3,1505.3,326.4,-0.7,1.8,2470.453,13.32,0.032,132.5
2020-06-18T03:34:03,42.805,6.029,0.031,-0.003,-0.01,101.0,106.0,99.0,13.4,1505.3,327.4,-0.7,1.8,2470.452,13.32,0.031,95.5
2020-06-18T03:37:03,42.805,6.029,0.026,0.009,-0.01,102.0,106.0,100.0,13.3,1505.3,326.0,-0.7,1.9,2470.433,13.32,0.027,70.9
2020-06-18T03:40:03,42.805,6.029,0.037,-0.004,-0.019,102.0,107.0,99.0,13.4,1505.3,327.6,-0.7,1.8,2470.427,13.32,0.037,96.2
2020-06-18T03:43:03,42.805,6.029,0.016,-0.004,-0.033,101.0,107.0,99.0,13.3,1505.3,326.9,-0.7,1.8,2470.435,13.32,0.016,104.0
2020-06-18T03:46:03,42.805,6.029,0.011,0.007,0.0,101.0,106.0,99.0,13.4,1505.3,326.5,-0.7,1.8,2470.43,13.32,0.013,57.5
2020-06-18T03:49:03,42.805,6.029,0.025,-0.024,-0.038,102.0,106.0,100.0,13.4,1505.3,328.4,-0.7,1.8,2470.461,13.32,0.034,133.8
2020-06-18T03:52:03,42.805,6.029,0.029,-0.011,0.005,102.0,106.0,100.0,13.4,1505.3,325.7,-0.7,1.8,2470.435,13.32,0.031,110.8
2020-06-18T03:55:03,42.805,6.029,0.055,-0.01,-0.022,101.0,106.0,100.0,13.4,1505.3,327.8,-0.7,1.8,2470.4,13.32,0.055,100.3
2020-06-18T03:58:03,42.805,6.029,-0.003,-0.029,-0.019,102.0,106.0,99.0,13.4,1505.3,323.2,-0.7,1.8,2470.446,13.32,0.029,185.9
2020-06-18T04:04:03,42.805,6.029,-0.001,0.018,-0.01,102.0,106.0,99.0,13.4,1505.2,325.9,-0.7,1.8,2470.517,13.3,0.018,356.8
2020-06-18T04:07:03,42.805,6.029,0.015,0.019,-0.017,103.0,106.0,100.0,13.4,1505.3,326.7,-0.7,1.8,2470.437,13.31,0.024,38.3
2020-06-18T04:10:03,42.805,6.029,0.024,-0.007,0.001,103.0,105.0,99.0,13.4,1505.3,326.2,-0.7,1.9,2470.454,13.32,0.025,106.3
2020-06-18T04:13:03,42.805,6.029,0.036,0.021,0.014,101.0,106.0,100.0,13.3,1505.3,325.3,-0.8,1.9,2470.494,13.32,0.041,59.7
2020-06-18T04:16:03,42.805,6.029,0.033,-0.004,-0.044,103.0,106.0,100.0,13.4,1505.3,323.3,-0.7,1.9,2470.445,13.32,0.033,96.9
2020-06-18T04:19:03,42.805,6.029,0.027,-0.013,-0.013,101.0,107.0,99.0,13.3,1505.3,327.6,-0.7,1.8,2470.466,13.32,0.029,115.7
2020-06-18T04:22:03,42.805,6.029,0.035,-0.01,0.023,101.0,107.0,100.0,13.4,1505.3,324.7,-0.7,1.8,2470.45,13.32,0.036,105.9
2020-06-18T04:25:03,42.805,6.029,0.021,-0.018,-0.002,102.0,106.0,100.0,13.4,1505.3,326.0,-0.7,1.8,2470.457,13.32,0.027,130.6
2020-06-18T04:28:03,42.805,6.029,0.041,0.015,0.001,102.0,106.0,99.0,13.4,1505.3,323.8,-0.7,1.8,2470.471,13.32,0.043,69.9
2020-06-18T04:31:03,42.805,6.029,0.036,-0.001,0.002,102.0,106.0,99.0,13.3,1505.3,325.8,-0.7,1.8,2470.46,13.32,0.036,91.6
2020-06-18T04:34:03,42.805,6.029,0.06,-0.004,0.03,103.0,105.0,99.0,13.4,1505.3,328.0,-0.7,1.8,2470.47,13.32,0.06,93.8
2020-06-18T04:37:03,42.805,6.029,0.036,0.0,-0.021,102.0,105.0,99.0,13.4,1505.3,324.9,-0.7,1.8,2470.429,13.32,0.036,90.0
2020-06-18T04:40:03,42.805,6.029,0.034,0.009,-0.005,102.0,106.0,100.0,13.4,1505.3,325.7,-0.7,1.9,2470.459,13.32,0.035,75.2
2020-06-18T04:43:03,42.805,6.029,0.025,-0.007,-0.018,102.0,106.0,100.0,13.4,1505.3,327.3,-0.7,1.8,2470.45,13.32,0.025,105.6
2020-06-18T04:46:03,42.805,6.029,0.037,0.001,-0.011,102.0,106.0,99.0,13.4,1505.3,325.0,-0.7,1.8,2470.435,13.32,0.037,88.5
2020-06-18T04:49:03,42.805,6.029,0.066,-0.01,-0.011,101.0,105.0,99.0,13.4,1505.3,327.1,-0.7,1.9,2470.481,13.32,0.066,98.6
2020-06-18T04:52:03,42.805,6.029,0.05,-0.004,0.036,102.0,106.0,100.0,13.3,1505.3,328.1,-0.7,1.8,2470.453,13.32,0.05,94.6
2020-06-18T04:55:03,42.805,6.029,0.025,0.01,-0.009,101.0,106.0,100.0,13.3,1505.3,324.8,-0.7,1.8,2470.475,13.32,0.026,68.2
2020-06-18T04:58:03,42.805,6.029,0.057,-0.002,0.018,102.0,105.0,99.0,13.4,1505.3,324.8,-0.7,1.8,2470.394,13.32,0.057,92.0
2020-06-18T05:04:03,42.805,6.029,0.034,-0.002,-0.002,102.0,105.0,100.0,13.3,1505.2,326.4,-0.8,1.8,2470.491,13.3,0.034,93.4
2020-06-18T05:07:03,42.805,6.029,0.027,-0.009,0.002,102.0,106.0,100.0,13.4,1505.3,326.2,-0.7,1.8,2470.476,13.31,0.028,108.4
2020-06-18T05:10:03,42.805,6.029,0.01,-0.009,-0.02,103.0,106.0,101.0,13.4,1505.3,328.2,-0.7,1.9,2470.496,13.32,0.013,132.0
2020-06-18T05:13:03,42.805,6.029,0.013,0.006,-0.017,102.0,107.0,100.0,13.4,1505.3,324.9,-0.7,1.8,2470.482,13.32,0.014,65.2
2020-06-18T05:16:03,42.805,6.029,0.031,0.004,0.028,102.0,105.0,100.0,13.4,1505.3,323.3,-0.7,1.8,2470.469,13.32,0.031,82.7
2020-06-18T05:19:03,42.805,6.029,0.037,-0.004,-0.006,102.0,105.0,101.0,13.4,1505.3,327.8,-0.7,1.8,2470.442,13.32,0.037,96.2
2020-06-18T05:22:03,42.805,6.029,0.053,-0.028,-0.001,101.0,106.0,100.0,13.4,1505.3,328.4,-0.7,1.8,2470.424,13.32,0.059,117.9
2020-06-18T05:25:03,42.805,6.029,0.027,0.001,0.01,101.0,106.0,100.0,13.3,1505.3,324.7,-0.7,1.8,2470.47,13.32,0.027,87.9
2020-06-18T05:28:03,42.805,6.029,0.023,-0.02,-0.039,103.0,106.0,100.0,13.4,1505.3,326.5,-0.7,1.8,2470.47,13.32,0.03,131.0
2020-06-18T05:31:03,42.805,6.029,0.044,0.006,-0.016,101.0,107.0,99.0,13.4,1505.3,325.3,-0.7,1.8,2470.453,13.32,0.044,82.2
2020-06-18T05:34:03,42.805,6.029,0.032,-0.019,-0.017,102.0,107.0,99.0,13.4,1505.3,328.0,-0.7,1.8,2470.465,13.32,0.037,120.7
2020-06-18T05:37:03,42.805,6.029,0.038,0.004,-0.003,102.0,106.0,100.0,13.4,1505.3,325.6,-0.7,1.8,2470.445,13.32,0.038,84.0
2020-06-18T05:40:03,42.805,6.029,0.043,-0.002,0.002,101.0,107.0,100.0,13.4,1505.3,323.8,-0.7,1.8,2470.421,13.32,0.043,92.7
2020-06-18T05:43:03,42.805,6.029,0.038,0.0,0.004,102.0,106.0,100.0,13.3,1505.3,326.5,-0.7,1.8,2470.451,13.32,0.038,90.0
2020-06-18T05:46:03,42.805,6.029,0.035,-0.008,0.0,101.0,106.0,100.0,13.3,1505.3,326.2,-0.7,1.8,2470.468,13.32,0.035,102.9
2020-06-18T05:49:03,42.805,6.029,0.056,-0.015,-0.004,101.0,106.0,99.0,13.4,1505.3,323.7,-0.7,1.9,2470.454,13.32,0.057,105.0
2020-06-18T05:52:03,42.805,6.029,0.023,0.0,-0.008,103.0,105.0,99.0,13.4,1505.3,325.0,-0.7,1.9,2470.462,13.32,0.023,90.0
2020-06-18T05:55:03,42.805,6.029,0.007,-0.022,-0.018,103.0,104.0,99.0,13.4,1505.3,324.5,-0.7,1.8,2470.427,13.32,0.023,162.4
2020-06-18T05:58:03,42.805,6.029,0.029,-0.016,-0.025,102.0,107.0,99.0,13.4,1505.3,323.4,-0.7,1.8,2470.473,13.32,0.033,118.9
2020-06-18T06:04:03,42.805,6.029,0.026,-0.009,-0.021,102.0,108.0,99.0,13.4,1505.2,323.5,-0.7,1.8,2470.472,13.3,0.027,109.1
2020-06-18T06:07:03,42.805,6.029,0.041,0.006,0.002,100.0,106.0,100.0,13.4,1505.3,324.8,-0.7,1.8,2470.501,13.31,0.041,81.7
2020-06-18T06:10:03,42.805,6.029,0.043,-0.021,-0.008,102.0,105.0,100.0,13.4,1505.3,324.8,-0.7,1.9,2470.46,13.32,0.047,116.0
2020-06-18T06:13:03,42.805,6.029,0.043,-0.006,0.018,101.0,106.0,100.0,13.4,1505.3,326.1,-0.7,1.8,2470.472,13.32,0.043,97.9
2020-06-18T06:16:03,42.805,6.029,0.03,-0.014,-0.019,102.0,104.0,99.0,13.4,1505.3,328.0,-0.7,1.9,2470.485,13.32,0.033,115.0
2020-06-18T06:19:03,42.805,6.029,0.04,-0.005,0.017,101.0,106.0,99.0,13.4,1505.3,324.5,-0.7,1.8,2470.482,13.32,0.04,97.1
2020-06-18T06:22:03,42.805,6.029,0.016,0.0,-0.026,100.0,107.0,100.0,13.3,1505.3,323.6,-0.7,1.9,2470.458,13.32,0.016,90.0
2020-06-18T06:25:03,42.805,6.029,0.044,-0.01,-0.015,102.0,104.0,99.0,13.3,1505.3,323.8,-0.7,1.8,2470.427,13.32,0.045,102.8
2020-06-18T06:28:03,42.805,6.029,0.029,-0.002,-0.023,101.0,105.0,99.0,13.4,1505.3,323.6,-0.7,1.8,2470.448,13.32,0.029,93.9
2020-06-18T06:31:03,42.805,6.029,0.034,0.005,0.021,101.0,107.0,100.0,13.4,1505.3,324.4,-0.7,1.8,2470.462,13.32,0.034,81.6
2020-06-18T06:34:03,42.805,6.029,0.054,-0.013,0.031,101.0,104.0,100.0,13.3,1505.3,326.9,-0.7,1.8,2470.449,13.32,0.055,103.5
2020-06-18T06:37:03,42.805,6.029,0.034,-0.022,-0.005,103.0,106.0,98.0,13.4,1505.3,324.4,-0.7,1.9,2470.449,13.32,0.04,122.9
2020-06-18T06:40:03,42.805,6.029,0.039,-0.011,-0.007,101.0,106.0,100.0,13.4,1505.3,327.6,-0.7,1.8,2470.473,13.32,0.04,105.7
2020-06-18T06:43:03,42.805,6.029,0.038,0.001,0.018,101.0,108.0,99.0,13.4,1505.3,326.5,-0.7,1.8,2470.449,13.32,0.038,88.5
2020-06-18T06:46:03,42.805,6.029,0.036,-0.019,-0.005,102.0,106.0,100.0,13.3,1505.3,328.2,-0.7,1.8,2470.448,13.32,0.04,117.8
2020-06-18T06:49:03,42.805,6.029,0.022,0.0,-0.022,101.0,106.0,99.0,13.3,1505.3,326.0,-0.7,1.8,2470.421,13.32,0.022,90.0
2020-06-18T06:52:03,42.805,6.029,0.033,-0.005,0.03,102.0,106.0,99.0,13.4,1505.3,326.2,-0.7,1.8,2470.395,13.32,0.033,98.6
2020-06-18T06:55:03,42.805,6.029,0.05,-0.001,-0.001,103.0,105.0,99.0,13.4,1505.3,323.4,-0.7,1.8,2470.415,13.32,0.05,91.1
2020-06-18T06:58:03,42.805,6.029,0.011,-0.007,-0.012,103.0,105.0,99.0,13.4,1505.3,324.6,-0.7,1.9,2470.378,13.32,0.013,122.5
2020-06-18T07:04:03,42.805,6.029,0.03,0.0,-0.028,102.0,107.0,99.0,13.3,1505.2,323.2,-0.8,1.8,2470.473,13.3,0.03,90.0
2020-06-18T07:07:03,42.805,6.029,0.028,-0.007,0.004,101.0,104.0,100.0,13.4,1505.3,323.9,-0.7,1.9,2470.446,13.31,0.028,104.0
2020-06-18T07:10:03,42.805,6.029,0.019,-0.016,-0.013,100.0,105.0,100.0,13.4,1505.3,326.8,-0.7,1.8,2470.492,13.32,0.024,130.1
2020-06-18T07:13:03,42.805,6.029,0.036,0.006,0.031,102.0,107.0,99.0,13.4,1505.3,326.3,-0.7,1.8,2470.469,13.32,0.036,80.5
2020-06-18T07:16:03,42.805,6.029,0.042,0.003,-0.017,103.0,104.0,99.0,13.3,1505.3,323.0,-0.7,1.9,2470.425,13.32,0.042,85.9
2020-06-18T07:19:03,42.805,6.029,0.014,0.003,0.012,102.0,105.0,100.0,13.3,1505.3,325.1,-0.7,1.8,2470.412,13.32,0.014,77.9
2020-06-18T07:22:03,42.805,6.029,0.04,-0.028,-0.011,102.0,106.0,100.0,13.3,1505.3,328.1,-0.7,1.8,2470.398,13.32,0.048,125.0
2020-06-18T07:25:03,42.805,6.029,0.025,-0.016,0.02,102.0,104.0,99.0,13.4,1505.3,324.8,-0.7,1.8,2470.439,13.32,0.029,122.6
2020-06-18T07:28:03,42.805,6.029,0.023,0.004,-0.006,103.0,105.0,99.0,13.4,1505.3,326.6,-0.7,1.9,2470.426,13.32,0.023,80.1
2020-06-18T07:31:03,42.805,6.029,0.032,-0.009,-0.001,102.0,104.0,99.0,13.4,1505.3,325.1,-0.7,1.8,2470.39,13.32,0.033,105.7
2020-06-18T07:34:03,42.805,6.029,0.033,-0.016,-0.044,102.0,106.0,99.0,13.4,1505.3,326.5,-0.7,1.8,2470.43,13.32,0.036,115.9
2020-06-18T07:37:03,42.805,6.029,0.019,0.0,0.001,101.0,107.0,99.0,13.4,1505.3,326.5,-0.7,1.8,2470.428,13.32,0.019,90.0
2020-06-18T07:40:03,42.805,6.029,0.029,-0.003,-0.003,101.0,107.0,99.0,13.4,1505.3,323.3,-0.7,1.8,2470.394,13.32,0.029,95.9
2020-06-18T07:43:03,42.805,6.029,0.039,-0.005,-0.004,102.0,104.0,100.0,13.3,1505.3,328.4,-0.7,1.8,2470.378,13.32,0.039,97.3
2020-06-18T07:46:03,42.805,6.029,0.054,0.008,0.044,100.0,105.0,102.0,13.4,1505.3,325.0,-0.7,1.9,2470.381,13.32,0.054,81.6
2020-06-18T07:49:03,42.805,6.029,0.021,-0.009,0.015,101.0,106.0,100.0,13.4,1505.3,323.3,-0.7,1.8,2470.416,13.32,0.022,113.2
2020-06-18T07:52:03,42.805,6.029,0.034,0.011,0.003,103.0,105.0,99.0,13.4,1505.3,326.4,-0.7,1.8,2470.407,13.32,0.035,72.1
2020-06-18T07:55:03,42.805,6.029,0.022,-0.011,-0.023,101.0,105.0,99.0,13.4,1505.3,326.1,-0.7,1.8,2470.402,13.33,0.024,116.6
2020-06-18T07:58:03,42.805,6.029,0.016,0.001,0.031,101.0,106.0,100.0,13.4,1505.3,326.2,-0.7,1.8,2470.408,13.33,0.016,86.4
2020-06-18T08:04:03,42.805,6.029,0.042,-0.001,-0.016,101.0,105.0,100.0,13.3,1505.3,323.2,-0.7,1.8,2470.432,13.31,0.042,91.4
2020-06-18T08:07:03,42.805,6.029,0.023,-0.004,-0.016,101.0,107.0,101.0,13.4,1505.3,325.3,-0.7,1.9,2470.419,13.31,0.023,99.9
2020-06-18T08:10:03,42.805,6.029,0.044,-0.001,0.003,103.0,106.0,100.0,13.4,1505.3,328.6,-0.7,1.8,2470.41,13.32,0.044,91.3
2020-06-18T08:13:03,42.805,6.029,0.021,0.005,-0.007,102.0,106.0,100.0,13.4,1505.3,326.1,-0.7,1.8,2470.424,13.32,0.021,76.6
2020-06-18T08:16:03,42.805,6.029,0.04,0.0,0.014,102.0,105.0,100.0,13.3,1505.3,326.7,-0.7,1.8,2470.414,13.32,0.04,90.0
2020-06-18T08:19:03,42.805,6.029,0.003,-0.005,-0.055,102.0,106.0,100.0,13.4,1505.3,324.2,-0.7,1.8,2470.381,13.32,0.005,149.0
2020-06-18T08:22:03,42.805,6.029,0.026,0.01,0.006,101.0,106.0,100.0,13.4,1505.3,323.3,-0.7,1.8,2470.403,13.32,0.027,69.0
2020-06-18T08:25:03,42.805,6.029,0.029,-0.025,-0.031,103.0,106.0,99.0,13.4,1505.3,327.9,-0.7,1.8,2470.391,13.32,0.038,130.8
2020-06-18T08:28:03,42.805,6.029,0.04,0.005,0.023,101.0,107.0,100.0,13.4,1505.3,328.0,-0.7,1.9,2470.383,13.32,0.04,82.9
2020-06-18T08:31:03,42.805,6.029,0.02,0.0,-0.001,102.0,106.0,100.0,13.4,1505.3,325.3,-0.7,1.9,2470.366,13.32,0.02,90.0
2020-06-18T08:34:03,42.805,6.029,0.045,-0.025,0.003,102.0,106.0,99.0,13.3,1505.3,326.0,-0.7,1.8,2470.364,13.32,0.051,119.1
2020-06-18T08:37:03,42.805,6.029,0.016,-0.003,-0.012,101.0,106.0,100.0,13.4,1505.3,326.1,-0.7,1.9,2470.391,13.32,0.016,100.6
2020-06-18T08:40:03,42.805,6.029,0.045,0.002,0.029,102.0,105.0,99.0,13.3,1505.3,324.6,-0.7,1.8,2470.369,13.32,0.045,87.5
2020-06-18T08:43:03,42.805,6.029,0.033,0.003,-0.007,102.0,105.0,98.0,13.3,1505.3,324.3,-0.7,1.8,2470.358,13.32,0.033,84.8
2020-06-18T08:46:03,42.805,6.029,0.043,0.012,0.03,101.0,107.0,99.0,13.4,1505.3,324.4,-0.7,1.9,2470.415,13.32,0.044,74.4
2020-06-18T08:49:03,42.805,6.029,0.029,-0.012,-0.008,101.0,104.0,100.0,13.3,1505.3,325.2,-0.7,1.8,2470.372,13.32,0.031,112.5
2020-06-18T08:52:03,42.805,6.029,0.036,-0.016,-0.001,101.0,106.0,100.0,13.3,1505.3,326.2,-0.7,1.8,2470.393,13.32,0.039,114.0
2020-06-18T08:55:03,42.805,6.029,0.049,0.005,0.026,101.0,105.0,99.0,13.4,1505.3,324.7,-0.7,1.8,2470.375,13.32,0.049,84.2
2020-06-18T08:58:03,42.805,6.029,0.063,0.007,0.017,102.0,105.0,98.0,13.4,1505.3,325.6,-0.7,1.8,2470.354,13.32,0.063,83.7
2020-06-18T09:04:03,42.805,6.029,0.036,-0.015,-0.025,102.0,106.0,100.0,13.4,1505.2,325.5,-0.7,1.8,2470.428,13.3,0.039,112.6
2020-06-18T09:07:03,42.805,6.029,0.002,0.001,-0.032,101.0,105.0,99.0,13.4,1505.3,324.7,-0.8,1.9,2470.403,13.31,0.002,63.4
2020-06-18T09:10:03,42.805,6.029,0.031,-0.005,-0.001,102.0,106.0,99.0,13.4,1505.3,323.8,-0.7,1.8,2470.36,13.32,0.031,99.2
2020-06-18T09:13:03,42.805,6.029,0.029,-0.013,0.0,102.0,105.0,100.0,13.4,1505.3,327.5,-0.7,1.9,2470.376,13.32,0.031,114.1
2020-06-18T09:16:03,42.805,6.029,0.0,-0.022,-0.008,102.0,107.0,100.0,13.3,1505.3,324.7,-0.7,1.8,2470.389,13.32,0.022,180.0
2020-06-18T09:19:03,42.805,6.029,0.033,-0.013,-0.001,103.0,105.0,99.0,13.3,1505.3,325.3,-0.7,1.9,2470.36,13.32,0.035,111.5
2020-06-18T09:22:03,42.805,6.029,0.043,0.003,0.012,101.0,103.0,100.0,13.3,1505.3,326.0,-0.7,1.8,2470.328,13.32,0.043,86.0
2020-06-18T09:25:03,42.805,6.029,0.025,-0.007,0.003,103.0,105.0,100.0,13.3,1505.3,324.1,-0.7,1.8,2470.335,13.32,0.025,105.6
2020-06-18T09:28:03,42.805,6.029,0.002,-0.006,-0.033,102.0,104.0,100.0,13.4,1505.3,325.3,-0.7,1.8,2470.345,13.32,0.006,161.6
2020-06-18T09:31:03,42.805,6.029,0.033,-0.009,0.001,100.0,106.0,100.0,13.3,1505.3,325.9,-0.7,1.8,2470.377,13.32,0.034,105.3
2020-06-18T09:34:03,42.805,6.029,0.028,0.002,0.0,102.0,105.0,100.0,13.4,1505.3,323.2,-0.7,1.8,2470.31,13.32,0.028,85.9
2020-06-18T09:37:03,42.805,6.029,0.076,-0.008,0.028,103.0,105.0,99.0,13.3,1505.3,324.9,-0.7,1.8,2470.353,13.32,0.076,96.0
2020-06-18T09:43:03,42.805,6.029,0.0,-0.009,-0.044,102.0,107.0,100.0,13.4,1505.2,327.0,-0.7,1.8,2470.372,13.3,0.009,180.0
2020-06-18T09:46:03,42.805,6.029,0.059,0.026,0.026,101.0,104.0,101.0,13.3,1505.3,324.9,-0.7,1.8,2470.367,13.31,0.064,66.2
2020-06-18T09:49:03,42.805,6.029,0.019,0.009,0.004,103.0,105.0,99.0,13.3,1505.3,328.2,-0.7,1.8,2470.326,13.32,0.021,64.7
2020-06-18T09:52:03,42.805,6.029,0.02,-0.012,0.0,101.0,106.0,100.0,13.4,1505.3,325.4,-0.7,1.9,2470.362,13.32,0.023,121.0
2020-06-18T09:55:03,42.805,6.029,0.048,0.013,-0.021,102.0,106.0,100.0,13.4,1505.3,324.3,-0.7,1.8,2470.361,13.32,0.049,74.8
2020-06-18T09:58:03,42.805,6.029,0.01,-0.005,-0.043,102.0,106.0,101.0,13.3,1505.3,325.0,-0.7,1.9,2470.341,13.32,0.011,116.6
2020-06-18T10:04:03,42.805,6.029,0.027,-0.018,-0.016,102.0,107.0,100.0,13.3,1505.2,323.0,-0.7,1.8,2470.378,13.3,0.032,123.7
2020-06-18T10:07:03,42.805,6.029,0.021,-0.01,-0.021,102.0,107.0,99.0,13.4,1505.3,326.8,-0.7,1.8,2470.365,13.31,0.023,115.5
2020-06-18T10:10:03,42.805,6.029,-0.011,-0.002,-0.031,101.0,104.0,99.0,13.3,1505.3,325.2,-0.7,1.8,2470.363,13.32,0.011,259.7
2020-06-18T10:13:03,42.805,6.029,0.04,0.006,0.04,102.0,105.0,100.0,13.3,1505.3,326.2,-0.7,1.8,2470.37,13.32,0.04,81.5
2020-06-18T10:16:03,42.805,6.029,0.044,-0.021,-0.034,103.0,105.0,99.0,13.4,1505.3,322.5,-0.7,1.8,2470.363,13.32,0.048,115.5
2020-06-18T10:19:03,42.805,6.029,0.021,-0.01,-0.004,102.0,106.0,99.0,13.4,1505.3,327.9,-0.6,1.8,2470.38,13.32,0.023,115.5
2020-06-18T10:22:03,42.805,6.029,0.025,-0.015,-0.006,102.0,105.0,99.0,13.4,1505.3,328.2,-0.7,1.8,2470.329,13.32,0.029,121.0
2020-06-18T10:25:03,42.805,6.029,0.002,-0.022,-0.04,101.0,106.0,100.0,13.4,1505.3,327.9,-0.7,1.9,2470.312,13.32,0.022,174.8
2020-06-18T10:28:03,42.805,6.029,0.036,0.0,0.003,101.0,104.0,101.0,13.4,1505.3,328.2,-0.7,1.8,2470.274,13.32,0.036,90.0
2020-06-18T10:31:03,42.805,6.029,0.003,0.001,-0.027,102.0,104.0,99.0,13.4,1505.3,328.1,-0.7,1.8,2470.309,13.32,0.003,71.6
2020-06-18T10:34:03,42.805,6.029,0.041,-0.003,0.0,101.0,105.0,100.0,13.4,1505.3,328.2,-0.7,1.9,2470.341,13.32,0.041,94.2
2020-06-18T10:37:03,42.805,6.029,0.014,-0.034,-0.032,102.0,104.0,100.0,13.4,1505.3,328.1,-0.7,1.8,2470.311,13.32,0.036,157.6
2020-06-18T10:40:03,42.805,6.029,0.0,-0.006,-0.012,102.0,105.0,99.0,13.3,1505.3,326.0,-0.7,1.8,2470.31,13.32,0.006,180.0
2020-06-18T10:43:03,42.805,6.029,0.028,-0.005,-0.007,102.0,105.0,100.0,13.4,1505.3,326.1,-0.7,1.8,2470.294,13.32,0.028,100.1
2020-06-18T10:46:03,42.805,6.029,0.041,-0.02,-0.016,101.0,106.0,99.0,13.4,1505.3,328.7,-0.7,1.8,2470.34,13.32,0.045,116.0
2020-06-18T10:49:03,42.805,6.029,0.015,-0.011,0.008,102.0,105.0,100.0,13.4,1505.3,327.7,-0.7,1.9,2470.304,13.32,0.018,126.3
2020-06-18T10:52:03,42.805,6.029,-0.013,-0.012,-0.014,102.0,104.0,100.0,13.4,1505.3,326.4,-0.7,1.8,2470.327,13.32,0.017,227.3
2020-06-18T10:55:03,42.805,6.029,0.035,-0.012,0.008,101.0,105.0,100.0,13.4,1505.3,324.9,-0.7,1.8,2470.303,13.32,0.037,108.9
2020-06-18T10:58:03,42.805,6.029,0.032,-0.022,-0.04,102.0,105.0,100.0,13.4,1505.3,326.2,-0.7,1.8,2470.339,13.32,0.038,124.5
2020-06-18T11:01:03,42.805,6.029,0.033,-0.007,0.025,102.0,108.0,99.0,13.4,1505.3,323.6,-0.7,1.8,2470.278,13.32,0.033,102.0
2020-06-18T11:04:03,42.805,6.029,0.0,-0.006,-0.02,101.0,105.0,99.0,13.4,1505.3,323.5,-0.7,1.8,2470.283,13.32,0.006,180.0
2020-06-18T11:07:03,42.805,6.029,0.027,0.0,-0.011,101.0,105.0,100.0,13.3,1505.3,323.1,-0.7,1.8,2470.3,13.32,0.026,90.0
2020-06-18T11:10:03,42.805,6.029,0.018,-0.019,-0.045,102.0,106.0,100.0,13.4,1505.3,324.7,-0.7,1.8,2470.286,13.32,0.026,136.5
2020-06-18T11:13:03,42.805,6.029,-0.022,-0.003,-0.018,102.0,106.0,99.0,13.3,1505.3,327.5,-0.7,1.8,2470.316,13.32,0.022,262.2
2020-06-18T11:16:03,42.805,6.029,0.012,0.001,-0.015,102.0,106.0,99.0,13.3,1505.3,326.4,-0.7,1.8,2470.291,13.32,0.012,85.2